Westerly, RI

8:42 PM EDT on May 26, 2017 (GMT -0400)
Westerly State

Weather History for KWST - January, 2013

Change the Weather History Date:

Saturday, January 19, 2013

  Actual Average (KGON) Record (KGON)
Temperature  
Mean Temperature 38 °F -  
Max Temperature 46 °F 35 °F 54 °F (1972)
Min Temperature 30 °F 17 °F -7 °F (1965)
Degree Days  
Heating Degree Days 27    
Moisture  
Dew Point 30 °F    
Average Humidity 65    
Maximum Humidity 80    
Minimum Humidity 54    
Precipitation  
Precipitation 0.00 in - - ()
Sea Level Pressure  
Sea Level Pressure 30.18 in    
Wind  
Wind Speed 13 mph (SW)    
Max Wind Speed 21 mph    
Max Gust Speed 34 mph    
Visibility 10 miles    
Events      
Averages and records for this station are not official NWS values.
T = Trace of Precipitation, MM = Missing Value Source: NWS Daily Summary

Daily Weather History Graph

Daily Weather History Graph

Search for Another Location

Airport or City:

Trip Planner

Search our weather history database for the weather conditions in past years. The results will help you decide how hot, cold, wet, or windy it might be!

Date:

Astronomy

Jan. 19, 2013 Rise Set
Actual Time 7:08 AM EST 4:47 PM EST
Civil Twilight 6:38 AM EST 5:17 PM EST
Nautical Twilight 6:04 AM EST 5:51 PM EST
Astronomical Twilight 5:31 AM EST 6:24 PM EST
Moon 11:13 AM EST (1/19) 12:39 AM EST (1/19)
Length of Visible Light 10h 39m
Length of Day
9h 39m
First Quarter, 57% of the Moon is Illuminated
Jan 19
First Quarter
Jan 26
Full
Feb 3
Last Quarter
Feb 10
New
Feb 17
First Quarter

Hourly Weather History & Observations

Time (EST) Temp. Windchill Dew Point Humidity Pressure Visibility Wind Dir Wind Speed Gust Speed Precip Events Conditions
12:53 AM 30.0 °F 22.4 °F 16.0 °F 56% 30.40 in 10.0 mi SW 8.1 mph - N/A   Clear
1:53 AM 30.9 °F 22.8 °F 16.0 °F 54% 30.40 in 10.0 mi WSW 9.2 mph 17.3 mph N/A   Mostly Cloudy
2:53 AM 33.1 °F 24.4 °F 19.0 °F 56% 30.37 in 10.0 mi SW 11.5 mph 20.7 mph N/A   Mostly Cloudy
3:53 AM 34.0 °F 23.4 °F 23.0 °F 64% 30.35 in 10.0 mi SW 17.3 mph 24.2 mph N/A   Partly Cloudy
4:53 AM 35.1 °F 26.4 °F 25.0 °F 67% 30.32 in 10.0 mi SW 12.7 mph 21.9 mph N/A   Mostly Cloudy
5:53 AM 37.0 °F 26.4 °F 25.0 °F 62% 30.31 in 10.0 mi SW 20.7 mph 28.8 mph N/A   Partly Cloudy
6:53 AM 37.9 °F 28.2 °F 28.0 °F 68% 30.28 in 10.0 mi SW 18.4 mph 28.8 mph N/A   Mostly Cloudy
7:53 AM 39.0 °F 29.6 °F 30.0 °F 70% 30.28 in 10.0 mi SW 18.4 mph 31.1 mph N/A   Clear
8:53 AM 41.0 °F 31.6 °F 30.9 °F 67% 30.28 in 10.0 mi SW 20.7 mph 33.4 mph N/A   Clear
9:53 AM 43.0 °F 34.8 °F 30.9 °F 62% 30.27 in 10.0 mi SW 18.4 mph 34.5 mph N/A   Clear
10:53 AM 45.0 °F 36.9 °F 30.9 °F 58% 30.23 in 10.0 mi SW 20.7 mph 32.2 mph N/A   Clear
11:53 AM 46.0 °F 38.8 °F 30.0 °F 54% 30.18 in 10.0 mi SW 18.4 mph 31.1 mph N/A   Clear
12:53 PM 46.0 °F 39.0 °F 30.9 °F 56% 30.14 in 10.0 mi WSW 17.3 mph 27.6 mph N/A   Clear
1:53 PM 46.0 °F 39.9 °F 32.0 °F 58% 30.12 in 10.0 mi WSW 13.8 mph 29.9 mph N/A   Clear
2:53 PM 46.0 °F 39.3 °F 30.9 °F 56% 30.09 in 10.0 mi SW 16.1 mph 24.2 mph N/A   Clear
3:53 PM 45.0 °F 38.9 °F 32.0 °F 60% 30.08 in 10.0 mi SW 12.7 mph 23.0 mph N/A   Clear
4:53 PM 44.1 °F 37.4 °F 32.0 °F 63% 30.07 in 10.0 mi SW 13.8 mph 19.6 mph N/A   Partly Cloudy
5:53 PM 44.1 °F 38.6 °F 34.0 °F 68% 30.06 in 10.0 mi SW 10.4 mph - N/A   Clear
6:53 PM 44.1 °F 38.6 °F 35.1 °F 71% 30.06 in 10.0 mi SW 10.4 mph - N/A   Clear
7:53 PM 44.1 °F 38.1 °F 35.1 °F 71% 30.05 in 10.0 mi SW 11.5 mph - N/A   Clear
8:53 PM 43.0 °F 37.7 °F 37.0 °F 80% 30.03 in 10.0 mi SW 9.2 mph - N/A   Clear
9:53 PM 42.1 °F 39.2 °F 36.0 °F 79% 30.01 in 10.0 mi SW 4.6 mph - N/A   Clear
10:53 PM 43.0 °F 38.8 °F 37.0 °F 80% 29.99 in 10.0 mi SW 6.9 mph - N/A   Clear
11:53 PM 44.1 °F 38.1 °F 36.0 °F 73% 29.96 in 10.0 mi SW 11.5 mph - N/A   Clear